Zurück zum Katalog

THOR ABLESTAR DEB

AktivLEO
NORAD 224·DEBRIS·🇺🇸 United States

Gestartet Jun 29, 1961 von Cape Canaveral Space Force Station

Loading…

Nächste Überflüge (nächste 24 Stunden)

TLE

AktuellSource: Space-Track

Epoche: Sep 7, 2026, 03:42 UTC

1 00224U 61015BL  26250.15448484  .00000120  00000-0  10759-3 0  9992
2 00224  66.7365 304.8191 0066059 325.1974  65.0691 14.12176197324090

Verfolge THOR ABLESTAR DEB in Echtzeit mit AllMySat

Download on the App Store